Location: Casa Rossa
(45.2389°N, 12.2056°E)
Time: 04:33:33
(UTC+00:00)

NOSS 2-1 (C) - Pass Details

Date: 14 July 2020
Orbit: 443 x 1759 km, 63.3° (Epoch: 29 July)

Event Time Altitude Azimuth Distance (km) Brightness Sun altitude
Rises 00:26:14 0° 320° (NW) 3,079 7.6 -21.3°
Reaches altitude 10° 00:28:16 10° 318° (NW) 2,303 6.8 -21.2°
Maximum altitude 00:33:35 74° 234° (SW) 995 4.3 -20.9°
Enters shadow 00:39:09 18° 153° (SSE) 2,508 6.3 -20.6°
